Location: downtown San Diego
(32.7310°N, 117.1990°W)
Time: 22:18:50
(UTC-07:00)

Cosmos 2058 Rocket - Pass Details

Date: 14 June 2018
Orbit: 610 x 639 km, 82.5° (Epoch: 20 August)

Event Time Altitude Azimuth Distance (km) Brightness Sun altitude
Rises 20:19:29 0° 7° (N) 2,923 6.9 -4.7°
Reaches altitude 10° 20:22:01 10° 19° (NNE) 2,007 5.9 -5.2°
Maximum altitude 20:25:50 27° 78° (ENE) 1,190 4.2 -5.9°
Drops below altitude 10° 20:29:35 10° 137° (SE) 1,980 5.0 -6.5°
Enters shadow 20:30:21 - 142° (SE) 2,250 5.3 -6.7°
